Home   Weather   Wageningen   Past weeks

Flag for Netherlands Past Weather in Wageningen, Netherlands — Yesterday and Last 2 Weeks

Now
14 °F

Ice fog.


Feels Like: 14 °F
Forecast: 28 / 34 °F
Wind: 1 mph from East

Location: Deelen

Current Time: Jan 23, 2017 at 3:38:25 am

Latest Report: Jan 23, 2017 at 2:55 am


Visibility: 4 mi

Pressure: 30.33 "Hg

Humidity: 92%

Dew Point: 12 °F

Location of WageningenLocation

Past Weather in Wageningen — Graph

°F

Wageningen Temperature Yesterday

Maximum temperature yesterday: 39 °F (at 2:55 pm)
Minimum temperature yesterday: 14 °F (at 8:25 am)
Average temperature yesterday: 24 °F

High & Low Weather Summary for the Past Weeks

 TemperatureHumidityPressure
High48 °F (Jan 11, 12:55 pm)100% (Jan 8, 2:25 am)30.72 "Hg (Jan 8, 2:25 am)
Low14 °F (Jan 22, 8:25 am)41% (Jan 20, 11:55 am)29.00 "Hg (Jan 13, 12:55 am)
Average32 °F90%30.17 "Hg
* Reported Jan 8 2:25 am — Jan 23 2:25 am, Wageningen, Weather by CustomWeather, © 2017

Note: Actual official high and low records may vary slightly from our data, if they occured in-between our weather recording intervals... More about our weather records

Advertising

Wageningen Weather History for the Previous 24 Hours

Scroll right to see more
 ConditionsComfort  
Time TempWeatherWind HumidityBarometerVisibility
2:25 am
Mon, Jan 23
16 °FIce fog.1 mph86%30.30 "Hg4 mi
1:55 am16 °FIce fog.1 mph93%30.30 "Hg3 mi
1:25 am16 °FIce fog.No wind93%30.30 "Hg4 mi
12:55 am16 °FIce fog.1 mph100%30.30 "Hg3 mi
12:25 am18 °FIce fog.1 mph93%30.33 "Hg3 mi
11:55 pm
Sun, Jan 22
18 °FIce fog.No wind93%30.33 "Hg2 mi
11:25 pm18 °FIce fog.1 mph93%30.30 "Hg3 mi
10:55 pm19 °FIce fog.1 mph93%30.30 "Hg3 mi
10:25 pm19 °FIce fog.1 mph93%30.30 "Hg2 mi
9:55 pm19 °FIce fog.2 mph93%30.30 "Hg2 mi
9:25 pm19 °FIce fog.1 mph93%30.30 "Hg2 mi
8:55 pm19 °FIce fog.1 mph93%30.30 "Hg2 mi
8:25 pm21 °FIce fog.No wind93%30.30 "Hg2 mi
7:55 pm21 °FIce fog.No wind93%30.30 "Hg2 mi
7:25 pm23 °FIce fog.2 mph93%30.30 "Hg2 mi
6:55 pm23 °FIce fog.1 mph93%30.30 "Hg3 mi
6:25 pm25 °FIce fog.1 mph93%30.30 "Hg3 mi
5:55 pm25 °FIce fog.1 mph86%30.30 "Hg3 mi
5:25 pm27 °FIce fog.1 mph86%30.30 "Hg4 mi
4:55 pm30 °FPassing clouds.3 mph75%30.30 "HgN/A
4:25 pm32 °FPassing clouds.2 mph75%30.30 "HgN/A
3:55 pm36 °FChilly.3 mph65%30.30 "HgN/A
3:25 pm37 °FChilly.2 mph60%30.30 "HgN/A
2:55 pm39 °FPassing clouds.1 mph56%30.30 "HgN/A
2:25 pm37 °FPassing clouds.No wind60%30.30 "HgN/A
1:55 pm36 °FPassing clouds.1 mph65%30.30 "HgN/A
1:25 pm36 °FPassing clouds.1 mph65%30.30 "HgN/A
12:55 pm36 °FPassing clouds.2 mph65%30.33 "HgN/A
12:25 pm32 °FChilly.2 mph75%30.33 "HgN/A
11:55 am32 °FPassing clouds.1 mph75%30.33 "HgN/A
11:25 am30 °FPassing clouds.1 mph75%30.33 "HgN/A
10:55 am28 °FIce fog.2 mph80%30.33 "Hg5 mi
10:25 am27 °FPassing clouds.2 mph80%30.33 "HgN/A
9:55 am19 °FPassing clouds.2 mph93%30.33 "HgN/A
9:25 am18 °FPassing clouds.1 mph93%30.33 "HgN/A
8:55 am16 °FPassing clouds.5 mph93%30.33 "HgN/A
8:25 am14 °FPassing clouds.5 mph92%30.33 "HgN/A
7:55 am16 °FPassing clouds.2 mph86%30.30 "HgN/A
7:25 am16 °FIce fog.1 mph93%30.33 "Hg5 mi
6:55 am18 °FIce fog.3 mph93%30.33 "Hg6 mi
6:25 am18 °FPassing clouds.2 mph93%30.33 "HgN/A
5:55 am19 °FIce fog.2 mph100%30.33 "Hg6 mi
5:25 am18 °FIce fog.2 mph93%30.33 "Hg3 mi
4:55 am21 °FIce fog.2 mph93%30.33 "Hg4 mi
4:25 am23 °FIce fog.3 mph93%30.33 "Hg5 mi
3:55 am21 °FIce fog.3 mph93%30.33 "Hg4 mi
3:25 am23 °FIce fog.3 mph86%30.33 "Hg4 mi
Weather by CustomWeather, © 2017

See weather overviewHow to use our weather pages